[Iaude] MPEC P32: 2024 PB [a=2.11,e=0.40,i=1.8,H=21.8]

mpec at cfa.harvard.edu mpec at cfa.harvard.edu
Fri Aug 2 14:18:37 EDT 2024


M.P.E.C. 2024-P32                                Issued 2024 August 2, 18:17 UT

     The Minor Planet Electronic Circulars contain information on unusual
         minor planets, routine data on comets and natural satellites,
         and occasional editorial announcements.  They are published
    on behalf of Division F of the International Astronomical Union by the
          Minor Planet Center, Smithsonian Astrophysical Observatory,
                          Cambridge, MA 02138, U.S.A.
			  
             Prepared using the Tamkin Foundation Computer Network

                              MPC at CFA.HARVARD.EDU
            URL https://www.minorplanetcenter.net/    ISSN 1523-6714

                                    2024 PB                                     


Observations:
     K24P00B  C2024 06 29.52981521 57 10.942-16 59 32.66         22.89GVEP032F52
     K24P00B  C2024 06 29.54029121 57 11.744-16 59 29.66         23.56GVEP032F52
     K24P00B  C2024 06 29.55075921 57 12.599-16 59 27.16         22.86GVEP032F52
     K24P00B  C2024 07 28.44828222 32 54.852-15 06 08.63         21.60GVEP032F51
     K24P00B  C2024 07 28.45928822 32 55.412-15 06 06.42         22.67GVEP032F51
     K24P00B  C2024 07 28.47028522 32 55.939-15 06 05.11         21.80GVEP032F51
     K24P00B  C2024 07 28.48129922 32 56.494-15 06 03.21         21.76GVEP032F51
     K24P00B* C2024 08 01.53062822 36 41.803-14 53 40.04         21.10wXEP032F52
     K24P00B  C2024 08 01.54256722 36 42.335-14 53 37.79         21.26wXEP032F52
     K24P00B  C2024 08 01.56627822 36 43.392-14 53 33.34         21.46wXEP032F52
     K24P00B KB2024 08 02.30160 22 37 22.838-14 51 27.58         20.6 GVEP032734
     K24P00B KB2024 08 02.31677 22 37 23.489-14 51 24.12         20.6 GVEP032734
     K24P00B KB2024 08 02.33159 22 37 24.127-14 51 20.63         20.6 GVEP032734
     K24P00B 3C2024 08 02.53391722 37 34.356-14 50 40.72         21.08GVEP032T14
     K24P00B 3C2024 08 02.53489422 37 34.398-14 50 40.55         21.11GVEP032T14
     K24P00B 3C2024 08 02.53586922 37 34.440-14 50 40.36         21.06GVEP032T14

Observer details:
734 Farpoint Observatory, Eskridge.  Observers D. Cromer, G. Hug, D. Goodin,
    R. Valentine, P. Lessig.  Measurer G. Hug.  0.69-m f/3.54 reflector + CMO.
F51 Pan-STARRS 1, Haleakala.  Observers J. Herman, T. Lowe, P. Minguez, A.
    Schultz, I. Smith.  Measurers K. Chambers, T. de Boer, J. Fairlamb, H.
    Gao, M. Huber, C.-C. Lin, E. Magnier, Y. Ramanjooloo, R. Wainscoat, R.
    Weryk.  1.8-m Ritchey-Chretien + CCD.
F52 Pan-STARRS 2, Haleakala.  Observers J. Herman, T. Lowe, P. Minguez, A.
    Schultz, I. Smith.  Measurers K. Chambers, T. de Boer, J. Fairlamb, H.
    Gao, M. Huber, C.-C. Lin, E. Magnier, Y. Ramanjooloo, R. Wainscoat, R.
    Weryk.  1.8-m Ritchey-Chretien + CCD.
T14 Canada-France-Hawaii Telescope, Maunakea.  Observers R. Wainscoat, A.
    Acohido, H. Flewelling.  Measurers R. Weryk, R. Wainscoat.  3.6-m f/4.1
    reflector + CCD.

Orbital elements:
2024 PB                                                  Earth MOID = 0.2627 AU
Epoch 2024 Oct. 17.0 TT = JDT 2460600.5                 Veres                   
M   5.42933              (2000.0)            P               Q                  
n   0.32224657     Peri.  339.23288     +0.99898600     -0.04330319             
a   2.1070613      Node    23.25930     +0.04444088     +0.90462599             
e   0.3994219      Incl.    1.78796     +0.00720965     +0.42400077             
P   3.06           H   21.87          G   0.15           U   8                  
Residuals in seconds of arc
240629 F52  0.6+  0.1+    240728 F51  0.2-  0.3-    240802 734 (0.6-  1.4+)
240629 F52  0.3-  0.2+    240801 F52  0.0   0.0     240802 T14  0.0   0.0
240629 F52  0.3-  0.3-    240801 F52  0.0   0.0     240802 T14  0.0   0.0
240728 F51  0.2+  0.1+    240801 F52  0.1+  0.0     240802 T14  0.0   0.0
240728 F51  0.2+  0.4+    240802 734  0.1+  0.4-
240728 F51  0.2-  0.2-    240802 734  0.3-  0.5+

Ephemeris:
2024 PB                  a,e,i = 2.11, 0.40, 2                   q = 1.2655
Date    TT    R. A. (2000) Decl.     Delta      r    Elong.  Phase     V
2024 07 03    22 02 09.8 -16 43 17   0.6137  1.5106   134.3    28.8    23.0
...
2024 07 18    22 21 38.1 -15 41 34   0.4932  1.4436   143.7    24.6    22.3
...
2024 07 26    22 30 27.3 -15 13 48   0.4393  1.4107   149.1    21.7    21.9
...
2024 08 01    22 36 13.5 -14 55 03   0.4038  1.3876   153.3    19.2    21.6
2024 08 02    22 37 06.7 -14 52 03   0.3983  1.3839   154.0    18.8    21.5
2024 08 03    22 37 58.5 -14 49 06   0.3929  1.3802   154.7    18.3    21.5
...
2024 08 09    22 42 42.4 -14 31 31   0.3631  1.3592   159.1    15.5    21.2
...
2024 08 17    22 47 53.5 -14 06 28   0.3300  1.3339   165.0    11.3    20.8
...
2024 09 01    22 54 59.8 -13 00 28   0.2880  1.2961   174.2     4.5    20.1

M. P. C. Staff               (C) Copyright 2024 MPC           M.P.E.C. 2024-P32





More information about the Iaude mailing list